Tracking 19246 objects as of 20-Aug-2018
HD Live streaming from Space Station
objects crossing your sky now

COSMOS 994

Track COSMOS 994 now!
10-day predictions
COSMOS 994 is classified as:


NORAD ID: 10731
Int'l Code: 1978-028A
Perigee: 979.2 km
Apogee: 1,011.3 km
Inclination: 82.9 °
Period: 104.9 minutes
Semi major axis: 7366 km
RCS: 2.0708 m2 (large)
Launch date: March 15, 1978
Source: Commonwealth of Independent States (former USSR) (CIS)
Launch site: PLESETSK MISSILE AND SPACE COMPLEX (PKMTR)
aabbcc
Your satellite tracking list
Your tracking list is empty




NASA's NSSDC Master Catalog

Two Line Element Set (TLE):
1 10731U 78028A   18231.82688640  .00000024  00000-0  97783-5 0  9999
2 10731  82.9343 329.3707 0021833 296.3028 213.4589 13.73195468 25771
Source of the keplerian elements: AFSPC